Location: Hawks Ness
(60.2333°N, 1.1667°W)
Time: 22:35:57
(UTC+00:00)

Okean 1-7 Rocket - Pass Details

Date: 22 October 2019
Orbit: 617 x 649 km, 82.5° (Epoch: 17 November)

Event Time Altitude Azimuth Distance (km) Brightness Sun altitude
Rises 05:28:01 0° 203° (SSW) 2,921 6.8 -12.1°
Reaches altitude 10° 05:30:16 10° 207° (SSW) 2,023 5.9 -11.8°
Maximum altitude 05:34:43 61° 289° (WNW) 729 3.6 -11.3°
Drops below altitude 10° 05:39:14 10° 10° (N) 2,056 6.3 -10.7°
Sets 05:41:32 0° 14° (NNE) 2,974 7.2 -10.4°
